Location: Caltech
(34.1382°N, 118.1253°W)
Time: 13:38:25
(UTC-07:00)

AO-7 - Visible Passes

Search period start: 31 October 2014 00:00
Search period end: 09 November 2014 23:00
Orbit: 1440 x 1459 km, 101.5° (Epoch: 30 October)

Date Brightness Start Highest point End Pass type
(mag) Time Alt. Az. Time Alt. Az. Time Alt. Az.
31 Oct ? 03:57:02 10° NE 04:03:19 23° E 04:09:33 10° SE visible
31 Oct ? 05:48:18 10° N 05:56:31 66° WNW 06:04:44 10° SSW visible
01 Nov ? 04:48:32 10° NNE 04:56:40 54° ESE 05:04:46 10° S visible
01 Nov ? 06:42:03 10° N 06:48:59 31° WNW 06:55:56 10° WSW visible
02 Nov ? 02:50:29 10° NE 02:56:18 21° E 03:02:06 10° SE visible
02 Nov ? 04:41:20 10° NNE 04:49:37 72° WNW 04:57:54 10° SSW visible
02 Nov ? 17:37:03 10° W 17:37:55 10° W 17:38:47 10° W visible
03 Nov ? 03:41:42 10° NNE 03:49:43 49° ESE 03:57:42 10° S visible
03 Nov ? 05:34:58 10° N 05:42:09 34° WNW 05:49:21 10° WSW visible
04 Nov ? 02:44:00 10° NE 02:49:18 18° E 02:54:33 10° SE visible
04 Nov ? 04:34:23 10° NNE 04:42:43 79° WNW 04:51:03 10° SSW visible
04 Nov ? 17:27:55 10° WSW 17:30:52 12° W 17:33:50 10° WNW visible
05 Nov ? 03:34:54 10° NNE 03:42:46 44° E 03:50:35 10° S visible
05 Nov ? 05:27:54 10° N 05:35:18 37° WNW 05:42:43 10° SW visible
06 Nov ? 02:37:38 10° ENE 02:42:17 16° E 02:46:53 10° SE visible
06 Nov ? 04:27:26 10° NNE 04:35:49 86° WNW 04:44:11 10° SSW visible
06 Nov ? 17:19:50 10° WSW 17:23:50 14° W 17:27:51 10° WNW visible
07 Nov ? 03:28:06 10° NNE 03:35:48 40° E 03:43:27 10° SSE visible
07 Nov ? 05:20:51 10° N 05:28:27 41° WNW 05:36:04 10° SW visible
08 Nov ? 02:31:27 10° ENE 02:35:15 14° E 02:39:02 10° ESE visible
08 Nov ? 04:20:31 10° NNE 04:28:54 86° ESE 04:37:16 10° SSW visible
08 Nov ? 17:12:02 10° SW 17:16:48 16° W 17:21:36 10° WNW visible
09 Nov ? 03:21:21 10° NE 03:28:50 36° E 03:36:16 10° SSE visible
09 Nov ? 05:13:49 10° N 05:21:36 45° WNW 05:29:23 10° SW visible
